Rochester, MN

10:10 PM CDT on June 17, 2018 (GMT -0500)
Rochester International

Weather History for KRST - October, 2017

Change the Weather History Date:

Friday, October 6, 2017

  Actual Average Record
Temperature  
Mean Temperature 54 °F 52 °F  
Max Temperature 56 °F 63 °F 89 °F (1997)
Min Temperature 52 °F 42 °F 14 °F (1935)
Degree Days  
Heating Degree Days 11 13  
Month to date heating degree days 44 73  
Since 1 July heating degree days 196 288  
Cooling Degree Days 0 0  
Month to date cooling degree days 1 4  
Year to date cooling degree days 494 583  
Growing Degree Days 3 (Base 50)    
Moisture  
Dew Point 54 °F    
Average Humidity 97    
Maximum Humidity 100    
Minimum Humidity 93    
Precipitation  
Precipitation 1.44 in 0.09 in 2.85 in (1911)
Month to date precipitation 2.77 0.57  
Year to date precipitation 29.44 28.21  
Snow  
Snow 0.00 in 0.00 in - ()
Month to date snowfall 0.0 0.0  
Since 1 July snowfall 0.0 0.0  
Since 1 September snowfall 0.0 0.0  
Snow Depth 0.00 in    
Sea Level Pressure  
Sea Level Pressure 29.86 in    
Wind  
Wind Speed 9 mph (ENE)    
Max Wind Speed 21 mph    
Max Gust Speed 24 mph    
Visibility 4 miles    
Events Rain , Thunderstorm    
T = Trace of Precipitation, MM = Missing Value Source: NWS Daily Summary

Daily Weather History Graph

Daily Weather History Graph

Search for Another Location

Airport or City:

Astronomy

Oct. 06, 2017 Rise Set
Actual Time 7:13 AM CDT 6:41 PM CDT
Civil Twilight 6:45 AM CDT 7:10 PM CDT
Nautical Twilight 6:11 AM CDT 7:43 PM CDT
Astronomical Twilight 5:38 AM CDT 8:16 PM CDT
Moon 7:39 PM CDT (10/6) 8:00 AM CDT (10/6)
Length of Visible Light 12h 25m
Length of Day
11h 27m
Full, 99% of the Moon is Illuminated
Oct 6
Full
Oct 12
Last Quarter
Oct 19
New
Oct 27
First Quarter
Nov 4
Full

Hourly Weather History & Observations

Time (CDT) Temp. Dew Point Humidity Pressure Visibility Wind Dir Wind Speed Gust Speed Precip Events Conditions
12:54 AM 52.0 °F 52.0 °F 100% 30.09 in 4.0 mi ESE 5.8 mph - N/A   Overcast
1:54 AM 52.0 °F 52.0 °F 100% 30.08 in 3.0 mi ESE 5.8 mph - 0.01 in Rain Light Rain
2:54 AM 53.1 °F 52.0 °F 96% 30.07 in 5.0 mi East 4.6 mph - 0.01 in   Overcast
3:54 AM 53.1 °F 52.0 °F 96% 30.06 in 5.0 mi East 4.6 mph - 0.01 in   Overcast
4:54 AM 53.1 °F 52.0 °F 96% 30.05 in 8.0 mi SSE 6.9 mph - N/A   Overcast
5:54 AM 53.1 °F 52.0 °F 96% 30.04 in 9.0 mi ENE 5.8 mph - N/A   Overcast
6:54 AM 53.1 °F 52.0 °F 96% 30.03 in 7.0 mi East 5.8 mph - N/A   Overcast
7:54 AM 53.1 °F 53.1 °F 100% 30.04 in 7.0 mi ENE 5.8 mph - N/A   Overcast
8:54 AM 53.1 °F 53.1 °F 100% 30.02 in 7.0 mi ENE 9.2 mph - N/A   Overcast
9:54 AM 54.0 °F 53.1 °F 97% 30.02 in 6.0 mi ENE 9.2 mph - 0.00 in   Overcast
10:54 AM 55.0 °F 54.0 °F 96% 30.00 in 7.0 mi East 10.4 mph - 0.00 in Rain Light Rain
11:09 AM 55.0 °F 54.0 °F 96% 29.98 in 2.5 mi East 10.4 mph - 0.00 in Rain Light Rain
11:15 AM 55.0 °F 54.0 °F 96% 29.98 in 1.2 mi East 11.5 mph - 0.00 in Rain Light Rain
11:33 AM 55.0 °F 55.0 °F 100% 29.97 in 1.8 mi East 9.2 mph - 0.01 in Rain Light Rain
11:39 AM 55.0 °F 54.0 °F 96% 29.96 in 2.0 mi ENE 10.4 mph - 0.01 in Rain Light Rain
11:47 AM 55.0 °F 54.0 °F 96% 29.96 in 2.5 mi ENE 8.1 mph - 0.01 in Rain Light Rain
11:54 AM 55.0 °F 54.0 °F 96% 29.97 in 2.5 mi ENE 9.2 mph - 0.01 in Rain Light Rain
12:18 PM 55.0 °F 54.0 °F 96% 29.95 in 2.0 mi ENE 9.2 mph - 0.01 in Rain Light Rain
12:54 PM 55.9 °F 55.0 °F 97% 29.92 in 1.8 mi East 10.4 mph - 0.01 in Rain Light Rain
1:03 PM 55.9 °F 55.0 °F 97% 29.91 in 2.0 mi East 9.2 mph - 0.00 in   Overcast
1:15 PM 55.9 °F 55.0 °F 97% 29.90 in 1.5 mi East 12.7 mph - 0.01 in Rain Light Rain
1:27 PM 55.9 °F 55.0 °F 97% 29.89 in 3.0 mi ESE 10.4 mph - 0.01 in Rain Light Rain
1:40 PM 55.9 °F 55.0 °F 97% 29.88 in 2.5 mi East 11.5 mph - 0.01 in   Overcast
1:54 PM 55.9 °F 55.0 °F 97% 29.88 in 2.0 mi East 8.1 mph - 0.01 in   Overcast
2:02 PM 55.9 °F 55.0 °F 97% 29.86 in 3.0 mi ENE 9.2 mph - N/A   Overcast
2:54 PM 55.9 °F 55.0 °F 97% 29.83 in 3.0 mi East 12.7 mph - N/A   Overcast
3:54 PM 55.9 °F 55.0 °F 97% 29.81 in 2.5 mi NE 8.1 mph - 0.02 in Rain , Thunderstorm Rain
3:58 PM 55.9 °F 55.0 °F 97% 29.80 in 1.8 mi NNE 8.1 mph - 0.04 in Rain , Thunderstorm Heavy Thunderstorms and Rain
4:11 PM 55.9 °F 55.0 °F 97% 29.82 in 2.0 mi North 6.9 mph - 0.14 in Rain , Thunderstorm Heavy Thunderstorms and Rain
4:20 PM 55.9 °F 55.0 °F 97% 29.82 in 2.0 mi NNW 8.1 mph - 0.21 in Rain Heavy Rain
4:33 PM 55.9 °F 55.0 °F 97% 29.83 in 1.8 mi NNW 10.4 mph - 0.33 in Rain Heavy Rain
4:43 PM 55.0 °F 55.0 °F 100% 29.81 in 2.5 mi North 11.5 mph - 0.44 in Rain Heavy Rain
4:51 PM 55.4 °F 55.4 °F 100% 29.80 in 3.0 mi NNE 13.8 mph - 0.50 in Rain Heavy Rain
4:54 PM 55.0 °F 55.0 °F 100% 29.81 in 3.0 mi NNE 12.7 mph - 0.52 in Rain Heavy Rain
5:54 PM 54.0 °F 54.0 °F 100% 29.76 in 5.0 mi ENE 18.4 mph - 0.38 in Rain Heavy Rain
6:54 PM 55.0 °F 54.0 °F 96% 29.68 in 10.0 mi ENE 15.0 mph 21.9 mph 0.13 in Rain Light Rain
7:04 PM 55.0 °F 54.0 °F 96% 29.67 in 10.0 mi NE 12.7 mph - 0.01 in Rain Light Rain
7:30 PM 55.0 °F 54.0 °F 96% 29.67 in 10.0 mi NE 13.8 mph - 0.01 in   Overcast
7:54 PM 55.0 °F 54.0 °F 96% 29.68 in 10.0 mi NE 13.8 mph - 0.01 in   Overcast
8:54 PM 55.0 °F 55.0 °F 100% 29.67 in 10.0 mi NNE 9.2 mph - N/A   Overcast
9:35 PM 55.0 °F 55.0 °F 100% 29.66 in 1.0 mi NNE 10.4 mph - 0.00 in Rain Light Rain
9:47 PM 55.0 °F 55.0 °F 100% 29.65 in 1.5 mi NE 12.7 mph - 0.00 in Rain Light Rain
9:54 PM 55.0 °F 55.0 °F 100% 29.65 in 1.5 mi NE 10.4 mph - 0.00 in Rain Light Rain
10:03 PM 55.0 °F 55.0 °F 100% 29.64 in 2.5 mi NE 11.5 mph - 0.00 in Rain Light Rain
10:38 PM 55.0 °F 55.0 °F 100% 29.63 in 1.5 mi NE 10.4 mph - 0.00 in   Overcast
10:54 PM 55.0 °F 55.0 °F 100% 29.64 in 1.2 mi NE 8.1 mph - 0.00 in Rain Light Rain
11:18 PM 55.0 °F 55.0 °F 100% 29.63 in 1.5 mi NE 6.9 mph - 0.12 in Rain Light Rain
11:54 PM 55.9 °F 55.0 °F 97% 29.63 in 1.5 mi NE 5.8 mph - 0.22 in Rain Light Rain